Location: Newark
(46.7000°N, 60.6000°W)
Time: 11:57:40
(UTC+00:00)

A-11 Canister half - Pass Details

Date: 03 November 2020
Orbit: 1516 x 1684 km, 47.2° (Epoch: 04 December)

Event Time Altitude Azimuth Distance (km) Brightness Sun altitude
Rises 02:44:57 0° 281° (W) 4,926 11.9 -56.0°
Reaches altitude 10° 02:48:08 10° 281° (W) 3,925 11.3 -56.2°
Enters shadow 02:49:09 14° 281° (W) 3,608 11.1 -56.3°
